Year,Month,Day,Hour,Minute,Value (Times are PST for temperature in C)
2015,06,27,00,00,22.50
2015,06,27,00,01,22.60
2015,06,27,00,02,22.60
2015,06,27,00,03,22.70
2015,06,27,00,04,22.70
2015,06,27,00,05,22.70
2015,06,27,00,06,22.70
2015,06,27,00,07,22.60
2015,06,27,00,08,22.60
2015,06,27,00,09,22.60
2015,06,27,00,10,22.50
2015,06,27,00,11,22.50
2015,06,27,00,12,22.40
2015,06,27,00,13,22.40
2015,06,27,00,14,22.40
2015,06,27,00,15,22.30
2015,06,27,00,16,22.30
2015,06,27,00,17,22.30
2015,06,27,00,18,22.20
2015,06,27,00,19,22.20
2015,06,27,00,20,22.20
2015,06,27,00,21,22.10
2015,06,27,00,22,22.10
2015,06,27,00,23,22.10
2015,06,27,00,24,22.00
2015,06,27,00,25,22.00
2015,06,27,00,26,22.00
2015,06,27,00,27,21.90
2015,06,27,00,28,21.90
2015,06,27,00,29,21.90
2015,06,27,00,30,21.90
2015,06,27,00,31,21.90
2015,06,27,00,32,21.80
2015,06,27,00,33,21.80
2015,06,27,00,34,21.80
2015,06,27,00,35,21.80
2015,06,27,00,36,21.80
2015,06,27,00,37,21.70
2015,06,27,00,38,21.70
2015,06,27,00,39,21.70
2015,06,27,00,40,21.70
2015,06,27,00,41,21.60
2015,06,27,00,42,21.60
2015,06,27,00,43,21.60
2015,06,27,00,44,21.60
2015,06,27,00,45,21.60
2015,06,27,00,46,21.60
2015,06,27,00,47,21.60
2015,06,27,00,48,21.60
2015,06,27,00,49,21.60
2015,06,27,00,50,21.60
2015,06,27,00,51,21.60
2015,06,27,00,52,21.60
2015,06,27,00,53,21.60
2015,06,27,00,54,21.50
2015,06,27,00,55,21.50
2015,06,27,00,56,21.50
2015,06,27,00,57,21.40
2015,06,27,00,58,21.40
2015,06,27,00,59,21.40
2015,06,27,01,00,21.30
2015,06,27,01,01,21.30
2015,06,27,01,02,21.30
2015,06,27,01,03,21.30
2015,06,27,01,04,21.20
2015,06,27,01,05,21.20
2015,06,27,01,06,21.20
2015,06,27,01,07,21.10
2015,06,27,01,08,21.10
2015,06,27,01,09,21.10
2015,06,27,01,10,21.00
2015,06,27,01,11,21.00
2015,06,27,01,12,21.00
2015,06,27,01,13,20.90
2015,06,27,01,14,20.90
2015,06,27,01,15,20.90
2015,06,27,01,16,20.90
2015,06,27,01,17,20.80
2015,06,27,01,18,20.80
2015,06,27,01,19,20.80
2015,06,27,01,20,20.80
2015,06,27,01,21,20.70
2015,06,27,01,22,20.70
2015,06,27,01,23,20.70
2015,06,27,01,24,20.70
2015,06,27,01,25,20.70
2015,06,27,01,26,20.70
2015,06,27,01,27,20.60
2015,06,27,01,28,20.60
2015,06,27,01,29,20.60
2015,06,27,01,30,20.60
2015,06,27,01,31,20.60
2015,06,27,01,32,20.50
2015,06,27,01,33,20.50
2015,06,27,01,34,20.40
2015,06,27,01,35,20.40
2015,06,27,01,36,20.40
2015,06,27,01,37,20.40
2015,06,27,01,38,20.30
2015,06,27,01,39,20.30
2015,06,27,01,40,20.30
2015,06,27,01,41,20.30
2015,06,27,01,42,20.30
2015,06,27,01,43,20.30
2015,06,27,01,44,20.20
2015,06,27,01,45,20.20
2015,06,27,01,46,20.20
2015,06,27,01,47,20.20
2015,06,27,01,48,20.20
2015,06,27,01,49,20.20
2015,06,27,01,50,20.20
2015,06,27,01,51,20.20
2015,06,27,01,52,20.10
2015,06,27,01,53,20.10
2015,06,27,01,54,20.10
2015,06,27,01,55,20.10
2015,06,27,01,56,20.10
2015,06,27,01,57,20.10
2015,06,27,01,58,20.00
2015,06,27,01,59,20.00
2015,06,27,02,00,20.00
2015,06,27,02,01,20.00
2015,06,27,02,02,20.00
2015,06,27,02,03,20.00
2015,06,27,02,04,20.10
2015,06,27,02,05,20.10
2015,06,27,02,06,20.10
2015,06,27,02,07,20.00
2015,06,27,02,08,20.00
2015,06,27,02,09,20.00
2015,06,27,02,10,20.00
2015,06,27,02,11,20.00
2015,06,27,02,12,20.00
2015,06,27,02,13,20.00
2015,06,27,02,14,20.00
2015,06,27,02,15,20.00
2015,06,27,02,16,20.00
2015,06,27,02,17,20.00
2015,06,27,02,18,20.00
2015,06,27,02,19,20.00
2015,06,27,02,20,20.00
2015,06,27,02,21,19.90
2015,06,27,02,22,19.90
2015,06,27,02,23,19.90
2015,06,27,02,24,19.90
2015,06,27,02,25,19.90
2015,06,27,02,26,19.90
2015,06,27,02,27,19.90
2015,06,27,02,28,19.90
2015,06,27,02,29,19.90
2015,06,27,02,30,19.90
2015,06,27,02,31,19.80
2015,06,27,02,32,19.80
2015,06,27,02,33,19.80
2015,06,27,02,34,19.80
2015,06,27,02,35,19.80
2015,06,27,02,36,19.70
2015,06,27,02,37,19.70
2015,06,27,02,38,19.70
2015,06,27,02,39,19.60
2015,06,27,02,40,19.60
2015,06,27,02,41,19.60
2015,06,27,02,42,19.60
2015,06,27,02,43,19.50
2015,06,27,02,44,19.50
2015,06,27,02,45,19.50
2015,06,27,02,46,19.50
2015,06,27,02,47,19.40
2015,06,27,02,48,19.40
2015,06,27,02,49,19.40
2015,06,27,02,50,19.40
2015,06,27,02,51,19.30
2015,06,27,02,52,19.30
2015,06,27,02,53,19.30
2015,06,27,02,54,19.30
2015,06,27,02,55,19.20
2015,06,27,02,56,19.20
2015,06,27,02,57,19.20
2015,06,27,02,58,19.10
2015,06,27,02,59,19.10
2015,06,27,03,00,19.10
2015,06,27,03,01,19.10
2015,06,27,03,02,19.10
2015,06,27,03,03,19.10
2015,06,27,03,04,19.10
2015,06,27,03,05,19.10
2015,06,27,03,06,19.10
2015,06,27,03,07,19.10
2015,06,27,03,08,19.10
2015,06,27,03,09,19.10
2015,06,27,03,10,19.10
2015,06,27,03,11,19.10
2015,06,27,03,12,19.10
2015,06,27,03,13,19.10
2015,06,27,03,14,19.10
2015,06,27,03,15,19.00
2015,06,27,03,16,19.00
2015,06,27,03,17,19.00
2015,06,27,03,18,18.90
2015,06,27,03,19,18.90
2015,06,27,03,20,18.90
2015,06,27,03,21,18.80
2015,06,27,03,22,18.80
2015,06,27,03,23,18.70
2015,06,27,03,24,18.60
2015,06,27,03,25,18.60
2015,06,27,03,26,18.50
2015,06,27,03,27,18.40
2015,06,27,03,28,18.40
2015,06,27,03,29,18.40
2015,06,27,03,30,18.50
2015,06,27,03,31,18.50
2015,06,27,03,32,18.60
2015,06,27,03,33,18.60
2015,06,27,03,34,18.70
2015,06,27,03,35,18.70
2015,06,27,03,36,18.70
2015,06,27,03,37,18.70
2015,06,27,03,38,18.70
2015,06,27,03,39,18.70
2015,06,27,03,40,18.70
2015,06,27,03,41,18.70
2015,06,27,03,42,18.70
2015,06,27,03,43,18.70
2015,06,27,03,44,18.70
2015,06,27,03,45,18.70
2015,06,27,03,46,18.70
2015,06,27,03,47,18.70
2015,06,27,03,48,18.70
2015,06,27,03,49,18.70
2015,06,27,03,50,18.70
2015,06,27,03,51,18.70
2015,06,27,03,52,18.70
2015,06,27,03,53,18.70
2015,06,27,03,54,18.70
2015,06,27,03,55,18.70
2015,06,27,03,56,18.60
2015,06,27,03,57,18.60
2015,06,27,03,58,18.60
2015,06,27,03,59,18.60
2015,06,27,04,00,18.60
2015,06,27,04,01,18.50
2015,06,27,04,02,18.50
2015,06,27,04,03,18.50
2015,06,27,04,04,18.50
2015,06,27,04,05,18.50
2015,06,27,04,06,18.60
2015,06,27,04,07,18.60
2015,06,27,04,08,18.60
2015,06,27,04,09,18.50
2015,06,27,04,10,18.50
2015,06,27,04,11,18.50
2015,06,27,04,12,18.50
2015,06,27,04,13,18.40
2015,06,27,04,14,18.40
2015,06,27,04,15,18.40
2015,06,27,04,16,18.30
2015,06,27,04,17,18.30
2015,06,27,04,18,18.30
2015,06,27,04,19,18.30
2015,06,27,04,20,18.30
2015,06,27,04,21,18.30
2015,06,27,04,22,18.20
2015,06,27,04,23,18.20
2015,06,27,04,24,18.30
2015,06,27,04,25,18.30
2015,06,27,04,26,18.30
2015,06,27,04,27,18.40
2015,06,27,04,28,18.40
2015,06,27,04,29,18.50
2015,06,27,04,30,18.50
2015,06,27,04,31,18.60
2015,06,27,04,32,18.60
2015,06,27,04,33,18.70
2015,06,27,04,34,18.70
2015,06,27,04,35,18.70
2015,06,27,04,36,18.80
2015,06,27,04,37,18.80
2015,06,27,04,38,18.80
2015,06,27,04,39,18.80
2015,06,27,04,40,18.80
2015,06,27,04,41,18.80
2015,06,27,04,42,18.80
2015,06,27,04,43,18.80
2015,06,27,04,44,18.80
2015,06,27,04,45,18.80
2015,06,27,04,46,18.80
2015,06,27,04,47,18.80
2015,06,27,04,48,18.70
2015,06,27,04,49,18.70
2015,06,27,04,50,18.70
2015,06,27,04,51,18.70
2015,06,27,04,52,18.70
2015,06,27,04,53,18.60
2015,06,27,04,54,18.60
2015,06,27,04,55,18.60
2015,06,27,04,56,18.60
2015,06,27,04,57,18.50
2015,06,27,04,58,18.50
2015,06,27,04,59,18.50
2015,06,27,05,00,18.50
2015,06,27,05,01,18.50
2015,06,27,05,02,18.50
2015,06,27,05,03,18.50
2015,06,27,05,04,18.60
2015,06,27,05,05,18.60
2015,06,27,05,06,18.60
2015,06,27,05,07,18.70
2015,06,27,05,08,18.70
2015,06,27,05,09,18.80
2015,06,27,05,10,18.80
2015,06,27,05,11,18.80
2015,06,27,05,12,18.80
2015,06,27,05,13,18.80
2015,06,27,05,14,18.80
2015,06,27,05,15,18.80
2015,06,27,05,16,18.80
2015,06,27,05,17,18.80
2015,06,27,05,18,18.80
2015,06,27,05,19,18.80
2015,06,27,05,20,18.80
2015,06,27,05,21,18.80
2015,06,27,05,22,18.80
2015,06,27,05,23,18.80
2015,06,27,05,24,18.80
2015,06,27,05,25,18.80
2015,06,27,05,26,18.80
2015,06,27,05,27,18.80
2015,06,27,05,28,18.80
2015,06,27,05,29,18.80
2015,06,27,05,30,18.80
2015,06,27,05,31,18.80
2015,06,27,05,32,18.90
2015,06,27,05,33,18.90
2015,06,27,05,34,18.90
2015,06,27,05,35,18.90
2015,06,27,05,36,18.90
2015,06,27,05,37,18.90
2015,06,27,05,38,18.90
2015,06,27,05,39,18.90
2015,06,27,05,40,18.90
2015,06,27,05,41,18.90
2015,06,27,05,42,18.90
2015,06,27,05,43,18.90
2015,06,27,05,44,18.90
2015,06,27,05,45,18.90
2015,06,27,05,46,18.80
2015,06,27,05,47,18.80
2015,06,27,05,48,18.80
2015,06,27,05,49,18.70
2015,06,27,05,50,18.60
2015,06,27,05,51,18.60
2015,06,27,05,52,18.50
2015,06,27,05,53,18.40
2015,06,27,05,54,18.40
2015,06,27,05,55,18.30
2015,06,27,05,56,18.30
2015,06,27,05,57,18.30
2015,06,27,05,58,18.20
2015,06,27,05,59,18.20
2015,06,27,06,00,18.20
2015,06,27,06,01,18.20
2015,06,27,06,02,18.20
2015,06,27,06,03,18.10
2015,06,27,06,04,18.10
2015,06,27,06,05,18.10
2015,06,27,06,06,18.10
2015,06,27,06,07,18.10
2015,06,27,06,08,18.10
2015,06,27,06,09,18.10
2015,06,27,06,10,18.20
2015,06,27,06,11,18.20
2015,06,27,06,12,18.20
2015,06,27,06,13,18.20
2015,06,27,06,14,18.20
2015,06,27,06,15,18.20
2015,06,27,06,16,18.20
2015,06,27,06,17,18.20
2015,06,27,06,18,18.20
2015,06,27,06,19,18.20
2015,06,27,06,20,18.20
2015,06,27,06,21,18.20
2015,06,27,06,22,18.20
2015,06,27,06,23,18.20
2015,06,27,06,24,18.20
2015,06,27,06,25,18.20
2015,06,27,06,26,18.30
2015,06,27,06,27,18.30
2015,06,27,06,28,18.30
2015,06,27,06,29,18.40
2015,06,27,06,30,18.50
2015,06,27,06,31,18.50
2015,06,27,06,32,18.60
2015,06,27,06,33,18.70
2015,06,27,06,34,18.70
2015,06,27,06,35,18.80
2015,06,27,06,36,18.90
2015,06,27,06,37,18.90
2015,06,27,06,38,19.00
2015,06,27,06,39,19.10
2015,06,27,06,40,19.20
2015,06,27,06,41,19.30
2015,06,27,06,42,19.30
2015,06,27,06,43,19.40
2015,06,27,06,44,19.40
2015,06,27,06,45,19.50
2015,06,27,06,46,19.50
2015,06,27,06,47,19.60
2015,06,27,06,48,19.60
2015,06,27,06,49,19.70
2015,06,27,06,50,19.70
2015,06,27,06,51,19.80
2015,06,27,06,52,19.80
2015,06,27,06,53,19.90
2015,06,27,06,54,19.90
2015,06,27,06,55,20.00
2015,06,27,06,56,20.00
2015,06,27,06,57,20.10
2015,06,27,06,58,20.10
2015,06,27,06,59,20.10
2015,06,27,07,00,20.20
2015,06,27,07,01,20.20
2015,06,27,07,02,20.30
2015,06,27,07,03,20.30
2015,06,27,07,04,20.30
2015,06,27,07,05,20.40
2015,06,27,07,06,20.40
2015,06,27,07,07,20.50
2015,06,27,07,08,20.50
2015,06,27,07,09,20.60
2015,06,27,07,10,20.60
2015,06,27,07,11,20.60
2015,06,27,07,12,20.60
2015,06,27,07,13,20.50
2015,06,27,07,14,20.50
2015,06,27,07,15,20.40
2015,06,27,07,16,20.40
2015,06,27,07,17,20.40
2015,06,27,07,18,20.40
2015,06,27,07,19,20.40
2015,06,27,07,20,20.40
2015,06,27,07,21,20.50
2015,06,27,07,22,20.50
2015,06,27,07,23,20.60
2015,06,27,07,24,20.60
2015,06,27,07,25,20.70
2015,06,27,07,26,20.70
2015,06,27,07,27,20.80
2015,06,27,07,28,20.80
2015,06,27,07,29,20.90
2015,06,27,07,30,20.90
2015,06,27,07,31,21.00
2015,06,27,07,32,21.00
2015,06,27,07,33,21.10
2015,06,27,07,34,21.10
2015,06,27,07,35,21.10
2015,06,27,07,36,21.10
2015,06,27,07,37,21.10
2015,06,27,07,38,21.10
2015,06,27,07,39,21.10
2015,06,27,07,40,21.10
2015,06,27,07,41,21.10
2015,06,27,07,42,21.10
2015,06,27,07,43,21.10
2015,06,27,07,44,21.10
2015,06,27,07,45,21.10
2015,06,27,07,46,21.10
2015,06,27,07,47,21.10
2015,06,27,07,48,21.00
2015,06,27,07,49,21.00
2015,06,27,07,50,20.90
2015,06,27,07,51,20.90
2015,06,27,07,52,20.90
2015,06,27,07,53,20.90
2015,06,27,07,54,20.90
2015,06,27,07,55,20.90
2015,06,27,07,56,20.80
2015,06,27,07,57,20.80
2015,06,27,07,58,20.80
2015,06,27,07,59,20.80
2015,06,27,08,00,20.80
2015,06,27,08,01,20.80
2015,06,27,08,02,20.80
2015,06,27,08,03,20.90
2015,06,27,08,04,20.90
2015,06,27,08,05,20.90
2015,06,27,08,06,20.90
2015,06,27,08,07,20.90
2015,06,27,08,08,20.90
2015,06,27,08,09,20.90
2015,06,27,08,10,20.90
2015,06,27,08,11,20.90
2015,06,27,08,12,20.90
2015,06,27,08,13,20.90
2015,06,27,08,14,20.90
2015,06,27,08,15,20.80
2015,06,27,08,16,20.80
2015,06,27,08,17,20.80
2015,06,27,08,18,20.80
2015,06,27,08,19,20.80
2015,06,27,08,20,20.80
2015,06,27,08,21,20.70
2015,06,27,08,22,20.60
2015,06,27,08,23,20.60
2015,06,27,08,24,20.60
2015,06,27,08,25,20.60
2015,06,27,08,26,20.60
2015,06,27,08,27,20.60
2015,06,27,08,28,20.70
2015,06,27,08,29,20.70
2015,06,27,08,30,20.70
2015,06,27,08,31,20.70
2015,06,27,08,32,20.70
2015,06,27,08,33,20.70
2015,06,27,08,34,20.70
2015,06,27,08,35,20.80
2015,06,27,08,36,20.80
2015,06,27,08,37,20.80
2015,06,27,08,38,20.90
2015,06,27,08,39,21.00
2015,06,27,08,40,21.10
2015,06,27,08,41,21.20
2015,06,27,08,42,21.30
2015,06,27,08,43,21.40
2015,06,27,08,44,21.50
2015,06,27,08,45,21.70
2015,06,27,08,46,21.80
2015,06,27,08,47,21.80
2015,06,27,08,48,21.80
2015,06,27,08,49,21.80
2015,06,27,08,50,21.80
2015,06,27,08,51,21.80
2015,06,27,08,52,21.80
2015,06,27,08,53,21.80
2015,06,27,08,54,21.80
2015,06,27,08,55,21.80
2015,06,27,08,56,21.80
2015,06,27,08,57,21.80
2015,06,27,08,58,21.80
2015,06,27,08,59,21.80
2015,06,27,09,00,21.90
2015,06,27,09,01,21.90
2015,06,27,09,02,21.90
2015,06,27,09,03,21.90
2015,06,27,09,04,21.90
2015,06,27,09,05,21.80
2015,06,27,09,06,21.80
2015,06,27,09,07,21.80
2015,06,27,09,08,21.90
2015,06,27,09,09,21.90
2015,06,27,09,10,22.00
2015,06,27,09,11,22.00
2015,06,27,09,12,22.10
2015,06,27,09,13,22.10
2015,06,27,09,14,22.20
2015,06,27,09,15,22.30
2015,06,27,09,16,22.50
2015,06,27,09,17,22.60
2015,06,27,09,18,22.60
2015,06,27,09,19,22.60
2015,06,27,09,20,22.60
2015,06,27,09,21,22.50
2015,06,27,09,22,22.50
2015,06,27,09,23,22.40
2015,06,27,09,24,22.30
2015,06,27,09,25,22.30
2015,06,27,09,26,22.30
2015,06,27,09,27,22.20
2015,06,27,09,28,22.20
2015,06,27,09,29,22.20
2015,06,27,09,30,22.30
2015,06,27,09,31,22.30
2015,06,27,09,32,22.30
2015,06,27,09,33,22.30
2015,06,27,09,34,22.40
2015,06,27,09,35,22.40
2015,06,27,09,36,22.40
2015,06,27,09,37,22.50
2015,06,27,09,38,22.50
2015,06,27,09,39,22.50
2015,06,27,09,40,22.40
2015,06,27,09,41,22.40
2015,06,27,09,42,22.40
2015,06,27,09,43,22.30
2015,06,27,09,44,22.30
2015,06,27,09,45,22.30
2015,06,27,09,46,22.30
2015,06,27,09,47,22.30
2015,06,27,09,48,22.30
2015,06,27,09,49,22.40
2015,06,27,09,50,22.40
2015,06,27,09,51,22.40
2015,06,27,09,52,22.50
2015,06,27,09,53,22.60
2015,06,27,09,54,22.60
2015,06,27,09,55,22.60
2015,06,27,09,56,22.60
2015,06,27,09,57,22.60
2015,06,27,09,58,22.50
2015,06,27,09,59,22.40
2015,06,27,10,00,22.40
2015,06,27,10,01,22.30
2015,06,27,10,02,22.30
2015,06,27,10,03,22.30
2015,06,27,10,04,22.30
2015,06,27,10,05,22.30
2015,06,27,10,06,22.40
2015,06,27,10,07,22.40
2015,06,27,10,08,22.40
2015,06,27,10,09,22.40
2015,06,27,10,10,22.40
2015,06,27,10,11,22.50
2015,06,27,10,12,22.50
2015,06,27,10,13,22.60
2015,06,27,10,14,22.60
2015,06,27,10,15,22.70
2015,06,27,10,16,22.80
2015,06,27,10,17,22.80
2015,06,27,10,18,22.90
2015,06,27,10,19,22.90
2015,06,27,10,20,22.90
2015,06,27,10,21,22.90
2015,06,27,10,22,22.90
2015,06,27,10,23,22.90
2015,06,27,10,24,23.00
2015,06,27,10,25,23.00
2015,06,27,10,26,23.10
2015,06,27,10,27,23.20
2015,06,27,10,28,23.10
2015,06,27,10,29,23.10
2015,06,27,10,30,23.10
2015,06,27,10,31,23.00
2015,06,27,10,32,22.90
2015,06,27,10,33,22.80
2015,06,27,10,34,22.80
2015,06,27,10,35,22.80
2015,06,27,10,36,22.70
2015,06,27,10,37,22.60
2015,06,27,10,38,22.50
2015,06,27,10,39,22.40
2015,06,27,10,40,22.40
2015,06,27,10,41,22.40
2015,06,27,10,42,22.40
2015,06,27,10,43,22.40
2015,06,27,10,44,22.50
2015,06,27,10,45,22.70
2015,06,27,10,46,22.90
2015,06,27,10,47,23.10
2015,06,27,10,48,23.30
2015,06,27,10,49,23.50
2015,06,27,10,50,23.60
2015,06,27,10,51,23.60
2015,06,27,10,52,23.60
2015,06,27,10,53,23.50
2015,06,27,10,54,23.40
2015,06,27,10,55,23.30
2015,06,27,10,56,23.20
2015,06,27,10,57,23.20
2015,06,27,10,58,23.20
2015,06,27,10,59,23.20
2015,06,27,11,00,23.20
2015,06,27,11,01,23.30
2015,06,27,11,02,23.30
2015,06,27,11,03,23.40
2015,06,27,11,04,23.50
2015,06,27,11,05,23.50
2015,06,27,11,06,23.50
2015,06,27,11,07,23.50
2015,06,27,11,08,23.50
2015,06,27,11,09,23.50
2015,06,27,11,10,23.40
2015,06,27,11,11,23.40
2015,06,27,11,12,23.40
2015,06,27,11,13,23.40
2015,06,27,11,14,23.40
2015,06,27,11,15,23.40
2015,06,27,11,16,23.50
2015,06,27,11,17,23.60
2015,06,27,11,18,23.60
2015,06,27,11,19,23.60
2015,06,27,11,20,23.70
2015,06,27,11,21,23.70
2015,06,27,11,22,23.80
2015,06,27,11,23,23.90
2015,06,27,11,24,24.00
2015,06,27,11,25,24.10
2015,06,27,11,26,24.20
2015,06,27,11,27,24.20
2015,06,27,11,28,24.30
2015,06,27,11,29,24.40
2015,06,27,11,30,24.50
2015,06,27,11,31,24.60
2015,06,27,11,32,24.70
2015,06,27,11,33,24.80
2015,06,27,11,34,24.80
2015,06,27,11,35,24.80
2015,06,27,11,36,24.80
2015,06,27,11,37,24.80
2015,06,27,11,38,24.80
2015,06,27,11,39,24.80
2015,06,27,11,40,24.90
2015,06,27,11,41,24.90
2015,06,27,11,42,25.00
2015,06,27,11,43,25.10
2015,06,27,11,44,25.10
2015,06,27,11,45,25.10
2015,06,27,11,46,25.10
2015,06,27,11,47,25.10
2015,06,27,11,48,25.10
2015,06,27,11,49,25.20
2015,06,27,11,50,25.20
2015,06,27,11,51,25.20
2015,06,27,11,52,25.20
2015,06,27,11,53,25.30
2015,06,27,11,54,25.30
2015,06,27,11,55,25.20
2015,06,27,11,56,25.20
2015,06,27,11,57,25.10
2015,06,27,11,58,25.10
2015,06,27,11,59,25.00
2015,06,27,12,00,25.00
2015,06,27,12,01,25.10
2015,06,27,12,02,25.10
2015,06,27,12,03,25.20
2015,06,27,12,04,25.20
2015,06,27,12,05,25.20
2015,06,27,12,06,25.30
2015,06,27,12,07,25.30
2015,06,27,12,08,25.40
2015,06,27,12,09,25.40
2015,06,27,12,10,25.40
2015,06,27,12,11,25.40
2015,06,27,12,12,25.40
2015,06,27,12,13,25.50
2015,06,27,12,14,25.60
2015,06,27,12,15,25.60
2015,06,27,12,16,25.60
2015,06,27,12,17,25.60
2015,06,27,12,18,25.60
2015,06,27,12,19,25.60
2015,06,27,12,20,25.60
2015,06,27,12,21,25.70
2015,06,27,12,22,25.70
2015,06,27,12,23,25.80
2015,06,27,12,24,25.80
2015,06,27,12,25,25.70
2015,06,27,12,26,25.60
2015,06,27,12,27,25.60
2015,06,27,12,28,25.50
2015,06,27,12,29,25.50
2015,06,27,12,30,25.40
2015,06,27,12,31,25.50
2015,06,27,12,32,25.50
2015,06,27,12,33,25.60
2015,06,27,12,34,25.70
2015,06,27,12,35,25.80
2015,06,27,12,36,25.90
2015,06,27,12,37,25.90
2015,06,27,12,38,26.00
2015,06,27,12,39,26.10
2015,06,27,12,40,26.10
2015,06,27,12,41,26.00
2015,06,27,12,42,26.00
2015,06,27,12,43,25.90
2015,06,27,12,44,26.00
2015,06,27,12,45,26.10
2015,06,27,12,46,26.20
2015,06,27,12,47,26.30
2015,06,27,12,48,26.30
2015,06,27,12,49,26.40
2015,06,27,12,50,26.40
2015,06,27,12,51,26.50
2015,06,27,12,52,26.60
2015,06,27,12,53,26.70
2015,06,27,12,54,26.90
2015,06,27,12,55,27.00
2015,06,27,12,56,27.20
2015,06,27,12,57,27.20
2015,06,27,12,58,27.20
2015,06,27,12,59,27.20
2015,06,27,13,00,27.10
2015,06,27,13,01,27.10
2015,06,27,13,02,26.90
2015,06,27,13,03,26.80
2015,06,27,13,04,26.70
2015,06,27,13,05,26.50
2015,06,27,13,06,26.40
2015,06,27,13,07,26.30
2015,06,27,13,08,26.20
2015,06,27,13,09,26.10
2015,06,27,13,10,26.00
2015,06,27,13,11,25.90
2015,06,27,13,12,25.90
2015,06,27,13,13,25.80
2015,06,27,13,14,25.70
2015,06,27,13,15,25.70
2015,06,27,13,16,25.60
2015,06,27,13,17,25.60
2015,06,27,13,18,25.60
2015,06,27,13,19,25.70
2015,06,27,13,20,25.70
2015,06,27,13,21,25.70
2015,06,27,13,22,25.80
2015,06,27,13,23,25.80
2015,06,27,13,24,25.90
2015,06,27,13,25,25.90
2015,06,27,13,26,26.00
2015,06,27,13,27,26.10
2015,06,27,13,28,26.20
2015,06,27,13,29,26.40
2015,06,27,13,30,26.50
2015,06,27,13,31,26.60
2015,06,27,13,32,26.60
2015,06,27,13,33,26.60
2015,06,27,13,34,26.50
2015,06,27,13,35,26.50
2015,06,27,13,36,26.60
2015,06,27,13,37,26.60
2015,06,27,13,38,26.60
2015,06,27,13,39,26.60
2015,06,27,13,40,26.60
2015,06,27,13,41,26.60
2015,06,27,13,42,26.70
2015,06,27,13,43,26.70
2015,06,27,13,44,26.80
2015,06,27,13,45,26.80
2015,06,27,13,46,26.80
2015,06,27,13,47,26.80
2015,06,27,13,48,26.80
2015,06,27,13,49,26.80
2015,06,27,13,50,26.90
2015,06,27,13,51,26.90
2015,06,27,13,52,27.00
2015,06,27,13,53,27.10
2015,06,27,13,54,27.00
2015,06,27,13,55,27.00
2015,06,27,13,56,27.00
2015,06,27,13,57,27.10
2015,06,27,13,58,27.10
2015,06,27,13,59,27.10
2015,06,27,14,00,27.10
2015,06,27,14,01,27.00
2015,06,27,14,02,27.00
2015,06,27,14,03,26.90
2015,06,27,14,04,26.90
2015,06,27,14,05,26.90
2015,06,27,14,06,26.80
2015,06,27,14,07,26.80
2015,06,27,14,08,26.90
2015,06,27,14,09,26.90
2015,06,27,14,10,27.00
2015,06,27,14,11,27.10
2015,06,27,14,12,27.20
2015,06,27,14,13,27.30
2015,06,27,14,14,27.40
2015,06,27,14,15,27.40
2015,06,27,14,16,27.40
2015,06,27,14,17,27.40
2015,06,27,14,18,27.50
2015,06,27,14,19,27.50
2015,06,27,14,20,27.50
2015,06,27,14,21,27.40
2015,06,27,14,22,27.40
2015,06,27,14,23,27.40
2015,06,27,14,24,27.40
2015,06,27,14,25,27.40
2015,06,27,14,26,27.30
2015,06,27,14,27,27.40
2015,06,27,14,28,27.50
2015,06,27,14,29,27.50
2015,06,27,14,30,27.50
2015,06,27,14,31,27.60
2015,06,27,14,32,27.60
2015,06,27,14,33,27.60
2015,06,27,14,34,27.70
2015,06,27,14,35,27.70
2015,06,27,14,36,27.80
2015,06,27,14,37,27.90
2015,06,27,14,38,28.00
2015,06,27,14,39,28.10
2015,06,27,14,40,28.10
2015,06,27,14,41,28.10
2015,06,27,14,42,28.10
2015,06,27,14,43,28.10
2015,06,27,14,44,28.10
2015,06,27,14,45,28.20
2015,06,27,14,46,28.20
2015,06,27,14,47,28.20
2015,06,27,14,48,28.30
2015,06,27,14,49,28.30
2015,06,27,14,50,28.40
2015,06,27,14,51,28.50
2015,06,27,14,52,28.60
2015,06,27,14,53,28.70
2015,06,27,14,54,28.80
2015,06,27,14,55,28.80
2015,06,27,14,56,28.80
2015,06,27,14,57,28.80
2015,06,27,14,58,28.80
2015,06,27,14,59,28.70
2015,06,27,15,00,28.70
2015,06,27,15,01,28.70
2015,06,27,15,02,28.70
2015,06,27,15,03,28.80
2015,06,27,15,04,28.90
2015,06,27,15,05,29.00
2015,06,27,15,06,29.10
2015,06,27,15,07,29.10
2015,06,27,15,08,29.20
2015,06,27,15,09,29.20
2015,06,27,15,10,29.20
2015,06,27,15,11,29.20
2015,06,27,15,12,29.20
2015,06,27,15,13,29.20
2015,06,27,15,14,29.30
2015,06,27,15,15,29.30
2015,06,27,15,16,29.40
2015,06,27,15,17,29.40
2015,06,27,15,18,29.40
2015,06,27,15,19,29.40
2015,06,27,15,20,29.40
2015,06,27,15,21,29.40
2015,06,27,15,22,29.40
2015,06,27,15,23,29.40
2015,06,27,15,24,29.40
2015,06,27,15,25,29.40
2015,06,27,15,26,29.30
2015,06,27,15,27,29.40
2015,06,27,15,28,29.40
2015,06,27,15,29,29.40
2015,06,27,15,30,29.50
2015,06,27,15,31,29.50
2015,06,27,15,32,29.60
2015,06,27,15,33,29.60
2015,06,27,15,34,29.60
2015,06,27,15,35,29.60
2015,06,27,15,36,29.70
2015,06,27,15,37,29.80
2015,06,27,15,38,29.90
2015,06,27,15,39,30.00
2015,06,27,15,40,30.10
2015,06,27,15,41,30.10
2015,06,27,15,42,30.10
2015,06,27,15,43,30.00
2015,06,27,15,44,30.00
2015,06,27,15,45,29.90
2015,06,27,15,46,29.90
2015,06,27,15,47,29.90
2015,06,27,15,48,29.90
2015,06,27,15,49,30.00
2015,06,27,15,50,30.10
2015,06,27,15,51,30.20
2015,06,27,15,52,30.20
2015,06,27,15,53,30.30
2015,06,27,15,54,30.30
2015,06,27,15,55,30.40
2015,06,27,15,56,30.50
2015,06,27,15,57,30.60
2015,06,27,15,58,30.60
2015,06,27,15,59,30.60
2015,06,27,16,00,30.70
2015,06,27,16,01,30.70
2015,06,27,16,02,30.70
2015,06,27,16,03,30.60
2015,06,27,16,04,30.60
2015,06,27,16,05,30.60
2015,06,27,16,06,30.60
2015,06,27,16,07,30.60
2015,06,27,16,08,30.60
2015,06,27,16,09,30.60
2015,06,27,16,10,30.60
2015,06,27,16,11,30.60
2015,06,27,16,12,30.50
2015,06,27,16,13,30.50
2015,06,27,16,14,30.40
2015,06,27,16,15,30.40
2015,06,27,16,16,30.40
2015,06,27,16,17,30.40
2015,06,27,16,18,30.50
2015,06,27,16,19,30.50
2015,06,27,16,20,30.60
2015,06,27,16,21,30.60
2015,06,27,16,22,30.60
2015,06,27,16,23,30.60
2015,06,27,16,24,30.60
2015,06,27,16,25,30.60
2015,06,27,16,26,30.60
2015,06,27,16,27,30.60
2015,06,27,16,28,30.70
2015,06,27,16,29,30.70
2015,06,27,16,30,30.70
2015,06,27,16,31,30.80
2015,06,27,16,32,30.70
2015,06,27,16,33,30.70
2015,06,27,16,34,30.70
2015,06,27,16,35,30.60
2015,06,27,16,36,30.60
2015,06,27,16,37,30.70
2015,06,27,16,38,30.70
2015,06,27,16,39,30.70
2015,06,27,16,40,30.80
2015,06,27,16,41,30.80
2015,06,27,16,42,30.90
2015,06,27,16,43,30.90
2015,06,27,16,44,31.00
2015,06,27,16,45,31.10
2015,06,27,16,46,31.10
2015,06,27,16,47,31.20
2015,06,27,16,48,31.10
2015,06,27,16,49,31.10
2015,06,27,16,50,31.10
2015,06,27,16,51,31.10
2015,06,27,16,52,31.10
2015,06,27,16,53,31.10
2015,06,27,16,54,31.10
2015,06,27,16,55,31.10
2015,06,27,16,56,31.20
2015,06,27,16,57,31.20
2015,06,27,16,58,31.20
2015,06,27,16,59,31.20
2015,06,27,17,00,31.10
2015,06,27,17,01,31.10
2015,06,27,17,02,31.10
2015,06,27,17,03,31.10
2015,06,27,17,04,31.00
2015,06,27,17,05,30.90
2015,06,27,17,06,30.90
2015,06,27,17,07,30.90
2015,06,27,17,08,30.80
2015,06,27,17,09,30.80
2015,06,27,17,10,30.80
2015,06,27,17,11,30.80
2015,06,27,17,12,30.80
2015,06,27,17,13,30.90
2015,06,27,17,14,30.90
2015,06,27,17,15,30.90
2015,06,27,17,16,30.80
2015,06,27,17,17,30.80
2015,06,27,17,18,30.80
2015,06,27,17,19,30.90